Flag for Uruguay Weather past 2 weeks in Minas, Uruguay

Now
63 °F

Sunny.


Feels Like: 63 °F
Forecast: 34 / 61 °F
Wind: 16 mph from West

Location: Capitan Corbeta

Current Time: May 25, 2015 at 2:31:45 PM

Latest Report: May 25, 2015 at 2:00 PM


Visibility: 10 mi

Pressure: 30.12 "Hg

Humidity: 49%

Dew point: 43 °F

Location of MinasLocation

Historic Weather in Minas — Graph

°F

Minas temperature yesterday

Maximum temperature yesterday: 63 °F (at 11:00 AM)
Minimum temperature yesterday: 43 °F (at 11:00 PM)
Average temperature yesterday: 57 °F

Past Weeks' High & Low Weather Summary

 TemperatureHumidityPressure
High82 °F (May 21, 2:00 PM)100% (May 15, 6:00 AM)30.30 "Hg (May 15, 6:00 AM)
Low41 °F (May 25, 4:00 AM)42% (May 21, 2:00 PM)29.65 "Hg (May 23, 3:00 PM)
Average63 °F79%30.09 "Hg
* Reported May 10 1:00 PM — May 25 1:00 PM, Minas, Weather by CustomWeather, © 2015

Note: Actual official high and low records may vary slightly from our data, if they occured in-between our weather recording intervals... More about our weather records

Advertising

Minas weather history for previous 24 hours

 ConditionsComfort  
Time TempWeatherWind HumidityBarometerVisibility
1:00 PM
Mon, May 25
63 °FPassing clouds.17 mph49%30.12 "HgN/A
12:00 PM63 °FPassing clouds.17 mph49%30.15 "HgN/A
11:00 AM61 °FPassing clouds.13 mph63%30.15 "HgN/A
10:00 AM54 °FPassing clouds.6 mph82%30.15 "HgN/A
9:00 AM45 °FPassing clouds.3 mph87%30.15 "HgN/A
8:00 AM41 °FSunny.2 mph87%30.12 "Hg10 mi
7:00 AM43 °FSunny.5 mph87%30.12 "Hg10 mi
6:00 AM43 °FClear.5 mph87%30.12 "Hg10 mi
5:00 AM43 °FClear.5 mph87%30.12 "Hg10 mi
4:00 AM41 °FClear.5 mph87%30.12 "Hg10 mi
3:00 AM43 °FClear.6 mph87%30.12 "Hg10 mi
2:00 AM43 °FClear.5 mph87%30.12 "Hg10 mi
1:00 AM45 °FClear.6 mph87%30.12 "Hg10 mi
12:00 AM46 °FClear.3 mph82%30.12 "Hg10 mi
11:00 PM
Sun, May 24
43 °FClear.3 mph81%30.12 "Hg10 mi
10:00 PM46 °FClear.6 mph76%30.12 "Hg10 mi
9:00 PM48 °FClear.5 mph66%30.09 "Hg10 mi
8:00 PM50 °FClear.5 mph67%30.09 "Hg10 mi
7:00 PM54 °FClear.7 mph63%30.07 "Hg10 mi
6:00 PM55 °FClear.10 mph63%30.07 "Hg10 mi
5:00 PM59 °FPassing clouds.10 mph63%30.07 "HgN/A
4:00 PM59 °FScattered clouds.12 mph63%30.04 "HgN/A
3:00 PM61 °FBroken clouds.12 mph59%30.04 "HgN/A
2:00 PM61 °FPartly sunny.14 mph55%30.04 "HgN/A
Weather by CustomWeather, © 2015

See weather overviewHow to use our weather pages